| time (UTC) | temp C | wind direction | speed KPH | gust KPH | rain 1hr cm | rain 24hr cm | rain mn cm | humidity % | barometer mb |
| 20260507052512 | 10 | 0.0 | 0.0 | 0.00 | 0.00 | 0.00 | 77 | 1012.9 | |
| 20260507051540 | 10 | 0.0 | 0.0 | 0.00 | 0.00 | 0.00 | 80 | 1012.9 | |
| 20260507045636 | 9 | 0.0 | 0.0 | 0.00 | 0.00 | 0.00 | 80 | 1012.8 | |
| 20260507044704 | 9 | 0.0 | 0.0 | 0.00 | 0.00 | 0.00 | 81 | 1012.7 | |
| 20260507043732 | 9 | 0.0 | 0.0 | 0.00 | 0.00 | 0.00 | 81 | 1012.7 | |
| 20260507042800 | 9 | 0.0 | 0.0 | 0.00 | 0.00 | 0.00 | 81 | 1012.6 | |
| 20260507041828 | 9 | 0.0 | 0.0 | 0.00 | 0.00 | 0.00 | 82 | 1012.4 | |
| 20260507040856 | 9 | 0.0 | 0.0 | 0.00 | 0.00 | 0.00 | 82 | 1012.4 | |
| 20260507034952 | 9 | 0.0 | 0.0 | 0.00 | 0.00 | 0.00 | 83 | 1012.1 | |
| 20260507034020 | 9 | 0.0 | 0.0 | 0.00 | 0.00 | 0.00 | 82 | 1012.0 | |
| 20260507033048 | 8 | 0.0 | 0.0 | 0.00 | 0.00 | 0.00 | 84 | 1011.8 | |
| 20260507032117 | 8 | 0.0 | 0.0 | 0.00 | 0.00 | 0.00 | 84 | 1011.7 | |
| 20260507031145 | 8 | 0.0 | 0.0 | 0.00 | 0.00 | 0.00 | 85 | 1011.7 | |
| 20260507030213 | 8 | 0.0 | 0.0 | 0.00 | 0.00 | 0.00 | 84 | 1011.6 | |
| 20260507025241 | 9 | 0.0 | 0.0 | 0.00 | 0.00 | 0.00 | 83 | 1011.7 | |
| 20260507024309 | 8 | 0.0 | 0.0 | 0.00 | 0.00 | 0.00 | 84 | 1011.5 | |
| 20260507023337 | 8 | 0.0 | 0.0 | 0.00 | 0.00 | 0.00 | 85 | 1011.5 | |
| 20260507022406 | 8 | 0.0 | 0.0 | 0.00 | 0.00 | 0.00 | 85 | 1011.5 | |
| 20260507021434 | 8 | 0.0 | 0.0 | 0.00 | 0.00 | 0.00 | 85 | 1011.5 | |
| 20260507020502 | 8 | 0.0 | 0.0 | 0.00 | 0.00 | 0.00 | 85 | 1011.5 | |
| 20260507015530 | 8 | 0.0 | 0.0 | 0.00 | 0.00 | 0.00 | 85 | 1011.3 | |
| 20260507014558 | 8 | 0.0 | 0.0 | 0.00 | 0.00 | 0.00 | 84 | 1011.3 | |
| 20260507013627 | 8 | 0.0 | 0.0 | 0.00 | 0.00 | 0.00 | 85 | 1011.3 | |
| 20260507012655 | 8 | 0.0 | 0.0 | 0.00 | 0.00 | 0.00 | 85 | 1011.3 | |
| 20260507011723 | 8 | 0.0 | 0.0 | 0.00 | 0.00 | 0.00 | 86 | 1011.3 | |
| 20260507010752 | 8 | 0.0 | 0.0 | 0.00 | 0.00 | 0.00 | 85 | 1011.2 | |
| 20260507005820 | 8 | 0.0 | 0.0 | 0.00 | 0.00 | 0.00 | 85 | 1010.9 | |
| 20260507004848 | 8 | 0.0 | 0.0 | 0.00 | 0.00 | 0.00 | 85 | 1010.9 | |
| 20260507003916 | 8 | 0.0 | 0.0 | 0.00 | 0.00 | 0.00 | 85 | 1011.0 | |
| 20260507002945 | 8 | 0.0 | 0.0 | 0.00 | 0.00 | 0.00 | 86 | 1010.8 | |
| 20260507002012 | 9 | 0.0 | 0.0 | 0.00 | 0.00 | 0.00 | 84 | 1010.8 | |
| 20260507001040 | 9 | 0.0 | 0.0 | 0.00 | 0.00 | 0.00 | 85 | 1011.0 | |
| 20260507000108 | 9 | 0.0 | 0.0 | 0.00 | 0.00 | 0.00 | 84 | 1011.0 | |
| 20260506235136 | 9 | 0.0 | 0.0 | 0.00 | 0.00 | 0.00 | 85 | 1010.9 | |
| 20260506234204 | 9 | 0.0 | 0.0 | 0.00 | 0.00 | 0.00 | 85 | 1010.9 | |
| 20260506233232 | 9 | 0.0 | 0.0 | 0.00 | 0.00 | 0.00 | 84 | 1010.9 | |
| 20260506232300 | 9 | 0.0 | 0.0 | 0.00 | 0.00 | 0.00 | 85 | 1010.7 | |
| 20260506231328 | 9 | 0.0 | 0.0 | 0.00 | 0.00 | 0.00 | 85 | 1010.8 | |
| 20260506230356 | 9 | 0.0 | 0.0 | 0.00 | 0.00 | 0.00 | 86 | 1010.6 | |
| 20260506225425 | 9 | 0.0 | 0.0 | 0.00 | 0.00 | 0.00 | 84 | 1010.4 | |
| 20260506224452 | 9 | 0.0 | 0.0 | 0.00 | 0.00 | 0.00 | 85 | 1010.4 | |
| 20260506223520 | 9 | 0.0 | 0.0 | 0.00 | 0.00 | 0.00 | 83 | 1010.4 | |
| 20260506222547 | 9 | 0.0 | 0.0 | 0.00 | 0.00 | 0.00 | 83 | 1010.4 | |
| 20260506221615 | 9 | 0.0 | 0.0 | 0.00 | 0.00 | 0.00 | 84 | 1010.6 | |
| 20260506220643 | 9 | 0.0 | 0.0 | 0.00 | 0.00 | 0.00 | 84 | 1010.6 | |
| 20260506215712 | 9 | 0.0 | 0.0 | 0.00 | 0.00 | 0.00 | 84 | 1010.5 | |
| 20260506214740 | 9 | 0.0 | 0.0 | 0.00 | 0.00 | 0.00 | 84 | 1010.6 | |
| 20260506213808 | 10 | 0.0 | 0.0 | 0.00 | 0.00 | 0.00 | 84 | 1010.4 | |
| 20260506212836 | 9 | 0.0 | 0.0 | 0.00 | 0.00 | 0.00 | 85 | 1010.4 | |
| 20260506211904 | 9 | 0.0 | 0.0 | 0.00 | 0.00 | 0.00 | 85 | 1010.2 | |
| 20260506210932 | 9 | 0.0 | 0.0 | 0.00 | 0.00 | 0.00 | 84 | 1010.1 | |
| 20260506210000 | 10 | 0.0 | 0.0 | 0.00 | 0.00 | 0.00 | 83 | 1009.9 | |
| 20260506205028 | 10 | 0.0 | 0.0 | 0.00 | 0.00 | 0.00 | 83 | 1010.0 | |
| 20260506204057 | 10 | 0.0 | 0.0 | 0.00 | 0.00 | 0.00 | 84 | 1009.9 | |
| 20260506203125 | 10 | 0.0 | 0.0 | 0.00 | 0.00 | 0.00 | 84 | 1009.6 | |
| 20260506202156 | 10 | 0.0 | 0.0 | 0.00 | 0.00 | 0.00 | 83 | 1009.6 | |
| 20260506201221 | 10 | 0.0 | 0.0 | 0.00 | 0.00 | 0.00 | 84 | 1009.6 | |
| 20260506200249 | 10 | 0.0 | 0.0 | 0.00 | 0.00 | 0.00 | 84 | 1009.6 | |
| 20260506195317 | 10 | 0.0 | 0.0 | 0.00 | 0.00 | 0.00 | 84 | 1009.6 | |
| 20260506194345 | 10 | 0.0 | 0.0 | 0.00 | 0.00 | 0.00 | 85 | 1009.6 | |
| 20260506193413 | 10 | 0.0 | 0.0 | 0.00 | 0.00 | 0.00 | 83 | 1009.5 | |
| 20260506192441 | 10 | 0.0 | 0.0 | 0.00 | 0.00 | 0.00 | 84 | 1009.6 | |
| 20260506191510 | 10 | 0.0 | 0.0 | 0.00 | 0.00 | 0.00 | 86 | 1009.3 | |
| 20260506190537 | 10 | 0.0 | 0.0 | 0.00 | 0.00 | 0.00 | 86 | 1009.3 | |
| 20260506185605 | 10 | 0.0 | 0.0 | 0.00 | 0.00 | 0.00 | 87 | 1009.2 | |
| 20260506184634 | 10 | 0.0 | 0.0 | 0.00 | 0.00 | 0.00 | 87 | 1009.0 | |
| 20260506183702 | 10 | 0.0 | 0.0 | 0.00 | 0.00 | 0.00 | 87 | 1008.9 | |
| 20260506182731 | 11 | 0.0 | 0.0 | 0.00 | 0.00 | 0.00 | 86 | 1008.8 | |
| 20260506181800 | 11 | 0.0 | 0.0 | 0.00 | 0.00 | 0.00 | 87 | 1008.7 | |
| 20260506180828 | 11 | 0.0 | 0.0 | 0.00 | 0.00 | 0.00 | 86 | 1008.5 | |
| 20260506175856 | 11 | 0.0 | 0.0 | 0.00 | 0.00 | 0.00 | 84 | 1008.4 | |
| 20260506174924 | 11 | 0.0 | 0.0 | 0.00 | 0.00 | 0.00 | 85 | 1008.5 | |
| 20260506173953 | 11 | 0.0 | 0.0 | 0.00 | 0.00 | 0.00 | 84 | 1008.5 | |
| 20260506173021 | 12 | 0.0 | 0.0 | 0.00 | 0.00 | 0.00 | 84 | 1008.5 | |
| 20260506172050 | 12 | 0.0 | 0.0 | 0.00 | 0.00 | 0.00 | 83 | 1008.4 | |
| 20260506171118 | 12 | 0.0 | 0.0 | 0.00 | 0.00 | 0.00 | 82 | 1008.3 | |
| 20260506170146 | 12 | 0.0 | 0.0 | 0.00 | 0.00 | 0.00 | 81 | 1008.2 | |
| 20260506165214 | 12 | 0.0 | 0.0 | 0.00 | 0.00 | 0.00 | 81 | 1008.1 | |
| 20260506164242 | 12 | 0.0 | 0.0 | 0.00 | 0.00 | 0.00 | 82 | 1008.1 | |
| 20260506163310 | 12 | 0.0 | 0.0 | 0.00 | 0.00 | 0.00 | 79 | 1008.1 | |
| 20260506162338 | 13 | 0.0 | 0.0 | 0.00 | 0.00 | 0.00 | 77 | 1008.0 | |
| 20260506161406 | 12 | 0.0 | 0.0 | 0.00 | 0.00 | 0.00 | 81 | 1007.9 | |
| 20260506160434 | 12 | 0.0 | 0.0 | 0.00 | 0.00 | 0.00 | 79 | 1008.0 | |
| 20260506155504 | 13 | 0.0 | 0.0 | 0.00 | 0.00 | 0.00 | 78 | 1008.0 | |
| 20260506154527 | 12 | 0.0 | 0.0 | 0.00 | 0.00 | 0.00 | 79 | 1008.0 | |
| 20260506153556 | 12 | 0.0 | 0.0 | 0.00 | 0.00 | 0.00 | 78 | 1008.0 | |
| 20260506152623 | 13 | 0.0 | 0.0 | 0.00 | 0.00 | 0.00 | 78 | 1007.9 | |
| 20260506151650 | 13 | 0.0 | 0.0 | 0.00 | 0.00 | 0.00 | 80 | 1008.0 | |
| 20260506150718 | 12 | 0.0 | 0.0 | 0.00 | 0.00 | 0.00 | 81 | 1007.9 | |
| 20260506145746 | 12 | 0.0 | 0.0 | 0.00 | 0.00 | 0.00 | 81 | 1007.8 | |
| 20260506144813 | 12 | 0.0 | 0.0 | 0.00 | 0.00 | 0.00 | 81 | 1007.7 | |
| 20260506143841 | 12 | 0.0 | 0.0 | 0.00 | 0.00 | 0.00 | 84 | 1007.7 | |
| 20260506142909 | 12 | 0.0 | 0.0 | 0.00 | 0.00 | 0.00 | 83 | 1007.7 | |
| 20260506141937 | 12 | 0.0 | 0.0 | 0.00 | 0.00 | 0.00 | 82 | 1007.7 | |
| 20260506141005 | 12 | 0.0 | 0.0 | 0.00 | 0.00 | 0.00 | 85 | 1007.7 | |
| 20260506140034 | 12 | 0.0 | 0.0 | 0.00 | 0.00 | 0.00 | 84 | 1007.4 | |
| 20260506135059 | 12 | 0.0 | 0.0 | 0.00 | 0.00 | 0.00 | 87 | 1007.5 | |
| 20260506134126 | 12 | 0.0 | 0.0 | 0.00 | 0.00 | 0.00 | 88 | 1007.5 | |
| 20260506133154 | 11 | 0.0 | 0.0 | 0.00 | 0.00 | 0.00 | 91 | 1007.4 | |
| 20260506132223 | 11 | 0.0 | 0.0 | 0.00 | 0.00 | 0.00 | 89 | 1007.3 | |
| 20260506131251 | 11 | 0.0 | 0.0 | 0.00 | 0.00 | 0.00 | 90 | 1007.4 | |
| 20260506130319 | 12 | 0.0 | 0.0 | 0.00 | 0.00 | 0.00 | 89 | 1007.4 | |
| 20260506125347 | 12 | 0.0 | 0.0 | 0.00 | 0.00 | 0.00 | 90 | 1007.2 | |
| 20260506124416 | 12 | 0.0 | 0.0 | 0.00 | 0.00 | 0.00 | 89 | 1007.3 | |
| 20260506123444 | 13 | 0.0 | 0.0 | 0.00 | 0.00 | 0.00 | 88 | 1007.2 | |
| 20260506122512 | 13 | 0.0 | 0.0 | 0.00 | 0.00 | 0.00 | 89 | 1006.9 | |
| 20260506121539 | 12 | 0.0 | 0.0 | 0.00 | 0.00 | 0.00 | 88 | 1006.9 | |
| 20260506120607 | 13 | 0.0 | 0.0 | 0.00 | 0.00 | 0.00 | 89 | 1006.8 | |
| 20260506115635 | 13 | 0.0 | 0.0 | 0.00 | 0.00 | 0.00 | 91 | 1006.6 | |
| 20260506114703 | 13 | 0.0 | 0.0 | 0.00 | 0.00 | 0.00 | 90 | 1006.6 | |
| 20260506113730 | 13 | 0.0 | 0.0 | 0.00 | 0.00 | 0.00 | 92 | 1006.5 | |
| 20260506112758 | 12 | 0.0 | 0.0 | 0.00 | 0.00 | 0.00 | 94 | 1006.6 | |
| 20260506111826 | 12 | 0.0 | 0.0 | 0.00 | 0.00 | 0.00 | 95 | 1006.7 | |
| 20260506110854 | 12 | 0.0 | 0.0 | 0.00 | 0.00 | 0.00 | 94 | 1006.7 | |
| 20260506105922 | 12 | 0.0 | 0.0 | 0.00 | 0.00 | 0.00 | 94 | 1006.6 | |
| 20260506104950 | 12 | 0.0 | 0.0 | 0.00 | 0.00 | 0.00 | 94 | 1006.5 | |
| 20260506104018 | 12 | 0.0 | 0.0 | 0.00 | 0.00 | 0.00 | 94 | 1006.6 | |
| 20260506103045 | 12 | 0.0 | 0.0 | 0.00 | 0.00 | 0.00 | 94 | 1006.4 | |
| 20260506102113 | 12 | 0.0 | 0.0 | 0.00 | 0.00 | 0.00 | 95 | 1006.4 | |
| 20260506101140 | 12 | 0.0 | 0.0 | 0.00 | 0.00 | 0.00 | 95 | 1006.3 | |
| 20260506100208 | 12 | 0.0 | 0.0 | 0.00 | 0.00 | 0.00 | 95 | 1006.3 | |
| 20260506095236 | 11 | 0.0 | 0.0 | 0.00 | 0.00 | 0.00 | 95 | 1006.5 | |
| 20260506094304 | 11 | 0.0 | 0.0 | 0.00 | 0.00 | 0.00 | 95 | 1006.5 | |
| 20260506093332 | 12 | 0.0 | 0.0 | 0.00 | 0.00 | 0.00 | 95 | 1006.3 | |
| 20260506092400 | 11 | 0.0 | 0.0 | 0.00 | 0.00 | 0.00 | 96 | 1006.4 | |
| 20260506091429 | 11 | 0.0 | 0.0 | 0.00 | 0.00 | 0.00 | 96 | 1006.4 | |
| 20260506090457 | 11 | 0.0 | 0.0 | 0.00 | 0.00 | 0.00 | 96 | 1006.3 | |
| 20260506085526 | 11 | 0.0 | 0.0 | 0.00 | 0.00 | 0.00 | 95 | 1006.3 | |
| 20260506084553 | 11 | 0.0 | 0.0 | 0.00 | 0.00 | 0.00 | 97 | 1006.3 | |
| 20260506083621 | 11 | 0.0 | 0.0 | 0.00 | 0.00 | 0.00 | 96 | 1006.2 | |
| 20260506082649 | 11 | 0.0 | 0.0 | 0.00 | 0.00 | 0.00 | 96 | 1006.2 | |
| 20260506081717 | 11 | 0.0 | 0.0 | 0.00 | 0.00 | 0.00 | 97 | 1006.3 | |
| 20260506080745 | 11 | 0.0 | 0.0 | 0.00 | 0.00 | 0.00 | 96 | 1006.3 | |
| 20260506072936 | 11 | 0.0 | 0.0 | 0.00 | 0.00 | 0.00 | 97 | 1006.2 | |
| 20260506072005 | 11 | 0.0 | 0.0 | 0.00 | 0.00 | 0.00 | 97 | 1006.3 | |
| 20260506071031 | 11 | 0.0 | 0.0 | 0.00 | 0.00 | 0.00 | 98 | 1006.3 | |
| 20260506062253 | 11 | 0.0 | 0.0 | 0.00 | 0.00 | 0.00 | 98 | 1006.1 | |
| 20260506061315 | 11 | 0.0 | 0.0 | 0.00 | 0.00 | 0.00 | 96 | 1006.0 | |
| 20260506060345 | 11 | 0.0 | 0.0 | 0.00 | 0.00 | 0.00 | 96 | 1006.2 |